Location: Mentone
(34.5413°N, 85.5351°W)
Time: 19:47:42
(UTC-06:00)

AO-Echo - Pass Details

Date: 21 August 2017
Orbit: 693 x 811 km, 98.4° (Epoch: 24 November)

Event Time Altitude Azimuth Distance (km) Brightness Sun altitude
Rises 01:32:53 0° 20° (NNE) 3,098 ? -42.1°
Reaches altitude 10° 01:35:12 10° 27° (NNE) 2,187 ? -42.0°
Enters shadow 01:35:32 12° 28° (NNE) 2,065 ? -41.9°
